Annette Island, AK

8:51 AM AKDT on August 21, 2017 (GMT -0800)
Annette Island

Weather History for PANT - November, 2012

Change the Weather History Date:

Monday, November 5, 2012

  Actual Average Record
Temperature  
Mean Temperature 46 °F 42 °F  
Max Temperature 48 °F 46 °F 61 °F (1949)
Min Temperature 43 °F 37 °F 23 °F (1973)
Degree Days  
Heating Degree Days 19 23  
Month to date heating degree days 100 114  
Since 1 July heating degree days 1528 1414  
Cooling Degree Days 0    
Month to date cooling degree days 0  
Year to date cooling degree days 7  
Moisture  
Dew Point 41 °F    
Average Humidity 0    
Maximum Humidity 0    
Minimum Humidity 0    
Precipitation  
Precipitation 0.30 in 0.45 in 3.63 in (1959)
Month to date precipitation 3.54 2.32  
Year to date precipitation 86.16 80.94  
Snow  
Snow 0.00 in 0.00 in 3.40 in (1985)
Month to date snowfall 0.0 0.3  
Since 1 July snowfall T 0.4  
Since 1 September snowfall 0.0 0.4  
Snow Depth 0.00 in    
Sea Level Pressure  
Sea Level Pressure 30.11 in    
Wind  
Wind Speed 12 mph (SSE)    
Max Wind Speed 17 mph    
Max Gust Speed 33 mph    
Visibility 9 miles    
Events Rain    
T = Trace of Precipitation, MM = Missing Value Source: NWS Daily Summary

Daily Weather History Graph

Daily Weather History Graph

Search for Another Location

Airport or City:

Trip Planner

Search our weather history database for the weather conditions in past years. The results will help you decide how hot, cold, wet, or windy it might be!

Date:

Astronomy

Nov. 05, 2012 Rise Set
Actual Time 6:59 AM AKST 3:59 PM AKST
Civil Twilight 6:20 AM AKST 4:38 PM AKST
Nautical Twilight 5:36 AM AKST 5:22 PM AKST
Astronomical Twilight 4:54 AM AKST 6:04 PM AKST
Moon 9:46 PM AKST (11/5) 12:23 PM AKST (11/5)
Length of Visible Light 10h 18m
Length of Day
8h 59m
Waning Gibbous, 61% of the Moon is Illuminated
Nov 5
Waning Gibbous
Nov 6
Last Quarter
Nov 13
New
Nov 20
First Quarter
Nov 28
Full

Hourly Weather History & Observations

Time (AKST) Temp. Windchill Dew Point Humidity Pressure Visibility Wind Dir Wind Speed Gust Speed Precip Events Conditions
12:53 AM 46.0 °F 40.2 °F 43.0 °F 89% 29.86 in 8.0 mi South 12.7 mph 33.4 mph 0.06 in Rain Light Rain
1:53 AM 46.0 °F 39.0 °F 43.0 °F 89% 29.90 in 10.0 mi South 17.3 mph 24.2 mph 0.05 in Rain Light Rain
2:37 AM 46.4 °F 40.7 °F 42.8 °F 87% 29.93 in 10.0 mi South 12.7 mph 24.2 mph 0.02 in   Overcast
2:53 AM 46.0 °F 40.6 °F 43.0 °F 89% 29.94 in 10.0 mi South 11.5 mph 23.0 mph 0.02 in   Overcast
3:53 AM 46.0 °F 40.2 °F 42.1 °F 86% 29.98 in 10.0 mi SSW 12.7 mph 24.2 mph 0.00 in   Overcast
4:53 AM 46.9 °F - 42.1 °F 83% 30.03 in 10.0 mi South 11.5 mph 21.9 mph 0.00 in Rain Light Rain
5:53 AM 45.0 °F 40.6 °F 42.1 °F 90% 30.06 in 10.0 mi WSW 8.1 mph - 0.01 in Rain Light Rain
6:53 AM 45.0 °F 38.9 °F 41.0 °F 86% 30.09 in 10.0 mi South 12.7 mph 18.4 mph 0.04 in   Scattered Clouds
7:12 AM 44.6 °F 40.2 °F 41.0 °F 87% 30.11 in 2.5 mi SSW 8.1 mph 19.6 mph 0.05 in Rain Heavy Rain
7:21 AM 44.6 °F 41.4 °F 41.0 °F 87% 30.11 in 7.0 mi Variable 5.8 mph 19.6 mph 0.08 in Rain Light Rain
7:53 AM 45.0 °F 39.7 °F 41.0 °F 86% 30.13 in 10.0 mi South 10.4 mph 18.4 mph 0.08 in   Mostly Cloudy
8:53 AM 44.1 °F 36.8 °F 41.0 °F 89% 30.17 in 5.0 mi SSW 16.1 mph 26.5 mph 0.01 in Rain Rain
9:53 AM 46.9 °F - 41.0 °F 80% 30.19 in 10.0 mi SSE 10.4 mph 21.9 mph 0.01 in   Overcast
10:53 AM 46.9 °F - 39.9 °F 77% 30.21 in 10.0 mi SSE 8.1 mph 18.4 mph N/A   Overcast
11:53 AM 48.0 °F - 39.9 °F 74% 30.21 in 10.0 mi SSE 11.5 mph 19.6 mph N/A   Overcast
12:53 PM 46.9 °F - 39.9 °F 77% 30.22 in 10.0 mi SSE 13.8 mph 19.6 mph N/A   Overcast
1:53 PM 46.9 °F - 41.0 °F 80% 30.22 in 10.0 mi South 9.2 mph - N/A   Overcast
2:53 PM 45.0 °F 40.6 °F 37.9 °F 76% 30.22 in 9.0 mi South 8.1 mph 20.7 mph 0.02 in Rain Light Rain
3:53 PM 45.0 °F 39.7 °F 39.9 °F 82% 30.19 in 10.0 mi SSE 10.4 mph - 0.00 in   Partly Cloudy
4:53 PM 44.1 °F 40.8 °F 39.9 °F 85% 30.18 in 10.0 mi SE 5.8 mph - N/A   Mostly Cloudy
5:53 PM 43.0 °F 39.5 °F 39.9 °F 89% 30.17 in 10.0 mi SE 5.8 mph - N/A   Clear
6:21 PM 44.6 °F 39.2 °F 41.0 °F 87% 30.16 in 10.0 mi SE 10.4 mph - N/A   Mostly Cloudy
6:41 PM 44.6 °F 39.7 °F 42.8 °F 93% 30.15 in 10.0 mi SE 9.2 mph - N/A   Overcast
6:53 PM 46.0 °F 41.4 °F 43.0 °F 89% 30.16 in 10.0 mi SE 9.2 mph - N/A   Overcast
7:53 PM 46.9 °F - 43.0 °F 86% 30.14 in 10.0 mi SSE 10.4 mph 19.6 mph N/A   Overcast
8:22 PM 46.4 °F 40.4 °F 42.8 °F 87% 30.13 in 10.0 mi SE 13.8 mph 20.7 mph N/A   Overcast
8:53 PM 46.9 °F - 42.1 °F 83% 30.13 in 10.0 mi SSE 15.0 mph 21.9 mph N/A   Overcast
9:39 PM 46.4 °F 41.1 °F 42.8 °F 87% 30.11 in 10.0 mi SE 11.5 mph 21.9 mph N/A   Overcast
9:53 PM 46.0 °F 39.9 °F 42.1 °F 86% 30.11 in 10.0 mi SE 13.8 mph 20.7 mph N/A   Overcast
10:53 PM 46.9 °F - 41.0 °F 80% 30.09 in 10.0 mi SE 13.8 mph 23.0 mph N/A   Overcast
11:05 PM 46.4 °F 40.7 °F 39.2 °F 76% 30.08 in 10.0 mi SE 12.7 mph 20.7 mph N/A   Overcast
11:53 PM 46.0 °F 39.9 °F 39.9 °F 79% 30.07 in 10.0 mi ESE 13.8 mph - N/A   Overcast